Weather History for Sheridan, WY

Change the Weather History Date:

Monday, September 30, 2013

  Actual Average Record
Temperature  
Mean Temperature 57 °F 51 °F  
Max Temperature 75 °F 67 °F 91 °F (1963)
Min Temperature 38 °F 36 °F 18 °F (1985)
Degree Days  
Heating Degree Days 8 14  
Month to date heating degree days 154 241  
Since 1 July heating degree days 155 303  
Cooling Degree Days 0 0  
Month to date cooling degree days 82 28  
Year to date cooling degree days 592 418  
Growing Degree Days 6 (Base 50)    
Moisture  
Dew Point 40 °F    
Average Humidity 59    
Maximum Humidity 86    
Minimum Humidity 31    
Precipitation  
Precipitation T in 0.05 in 0.94 in (1923)
Month to date precipitation 4.26 1.43  
Year to date precipitation 14.25 11.48  
Sea Level Pressure  
Sea Level Pressure 29.67 in    
Wind  
Wind Speed 8 mph (West)    
Max Wind Speed 46 mph    
Max Gust Speed 54 mph    
Visibility 10 miles    
Events Rain    
T = Trace of Precipitation, MM = Missing Value Source: NWS Daily Summary

Daily Weather History Graph

Daily Weather History Graph

Search for Another Location

Airport:

Trip Planner

Search our weather history database for the weather conditions in past years. The results will help you decide how hot, cold, wet, or windy it might be!

Date:

Astronomy

Sep. 30, 2013 Rise Set
Actual Time 7:04 AM MDT 6:49 PM MDT
Civil Twilight 6:35 AM MDT 7:18 PM MDT
Nautical Twilight 6:01 AM MDT 7:52 PM MDT
Astronomical Twilight 5:27 AM MDT 8:27 PM MDT
Moon 2:35 AM MDT (9/30) 4:30 PM MDT (9/30)
Length of Visible Light 12h 42m
Length of Day
11h 44m
Waning Crescent, 18% of the Moon is Illuminated
Sep 30
Waning Crescent
Oct 4
New
Oct 11
First Quarter
Oct 18
Full
Oct 26
Last Quarter

Hourly Weather History & Observations

Time (MDT) Temp. Windchill Dew Point Humidity Pressure Visibility Wind Dir Wind Speed Gust Speed Precip Events Conditions
12:53 AM 46.9 °F - 39.0 °F 74% 29.66 in 10.0 mi Variable 5.8 mph - N/A   Partly Cloudy
1:53 AM 41.0 °F - 37.0 °F 86% 29.67 in 10.0 mi Calm Calm - N/A   Clear
2:53 AM 39.9 °F 35.8 °F 36.0 °F 86% 29.65 in 10.0 mi WSW 5.8 mph - N/A   Clear
3:53 AM 39.9 °F - 36.0 °F 86% 29.63 in 10.0 mi Calm Calm - N/A   Clear
4:53 AM 39.0 °F 35.7 °F 36.0 °F 89% 29.62 in 10.0 mi SSW 4.6 mph - N/A   Clear
5:53 AM 39.9 °F - 36.0 °F 86% 29.60 in 10.0 mi Calm Calm - N/A   Clear
6:53 AM 39.0 °F 35.7 °F 35.1 °F 86% 29.60 in 10.0 mi NNW 4.6 mph - N/A   Clear
7:53 AM 45.0 °F 42.6 °F 37.9 °F 76% 29.58 in 10.0 mi Variable 4.6 mph - N/A   Clear
8:53 AM 54.0 °F - 43.0 °F 66% 29.56 in 10.0 mi Variable 4.6 mph - N/A   Clear
9:53 AM 61.0 °F - 48.9 °F 64% 29.52 in 10.0 mi Variable 4.6 mph - N/A   Clear
10:53 AM 71.1 °F - 42.1 °F 35% 29.49 in 10.0 mi WSW 9.2 mph - N/A   Clear
11:53 AM 71.1 °F - 42.1 °F 35% 29.51 in 10.0 mi SW 13.8 mph - N/A   Clear
12:53 PM 73.9 °F - 41.0 °F 30% 29.50 in 10.0 mi SSW 9.2 mph - N/A   Clear
1:53 PM 71.1 °F - 41.0 °F 34% 29.53 in 10.0 mi WSW 13.8 mph - N/A   Overcast
2:35 PM 57.2 °F - 41.0 °F 55% 29.66 in 10.0 mi NW 44.9 mph 54.1 mph N/A   Mostly Cloudy
2:38 PM 55.4 °F - 41.0 °F 58% 29.66 in 10.0 mi NW 32.2 mph 54.1 mph N/A   Mostly Cloudy
2:53 PM 55.9 °F - 42.1 °F 60% 29.68 in 10.0 mi NW 33.4 mph 49.5 mph 0.00 in Rain Light Rain
3:53 PM 57.0 °F - 39.0 °F 51% 29.73 in 10.0 mi NNW 20.7 mph 25.3 mph 0.00 in   Partly Cloudy
4:53 PM 55.0 °F - 41.0 °F 59% 29.77 in 10.0 mi NNW 13.8 mph - N/A   Partly Cloudy
5:53 PM 53.1 °F - 41.0 °F 64% 29.78 in 10.0 mi NW 9.2 mph - N/A   Scattered Clouds
6:53 PM 48.9 °F - 39.0 °F 69% 29.81 in 10.0 mi NW 8.1 mph - N/A   Partly Cloudy
7:53 PM 48.9 °F - 41.0 °F 74% 29.84 in 10.0 mi West 8.1 mph - N/A   Mostly Cloudy
8:53 PM 46.0 °F 43.9 °F 39.9 °F 79% 29.83 in 10.0 mi West 4.6 mph - N/A   Scattered Clouds
9:53 PM 44.1 °F 40.1 °F 39.9 °F 85% 29.83 in 10.0 mi South 6.9 mph - N/A   Scattered Clouds
10:53 PM 42.1 °F 39.2 °F 37.0 °F 82% 29.83 in 10.0 mi SSE 4.6 mph - N/A   Clear
11:53 PM 41.0 °F 36.4 °F 37.0 °F 86% 29.85 in 10.0 mi South 6.9 mph - N/A   Clear